Fairbanks Ft. Wainwright, AK

2:05 AM AKDT on October 23, 2017 (GMT -0800)
Ladd Army Air Field

Weather History for PAFB - June, 2014

Change the Weather History Date:

Sunday, June 8, 2014

  Actual Average Record
Temperature  
Mean Temperature 65 °F -  
Max Temperature 73 °F 67 °F 83 °F (2017)
Min Temperature 55 °F 49 °F 46 °F (2001)
Growing Degree Days 15 (Base 50)    
Moisture  
Dew Point 42 °F    
Average Humidity 44    
Maximum Humidity 77    
Minimum Humidity 30    
Precipitation  
Precipitation 0.00 in - - ()
Sea Level Pressure  
Sea Level Pressure 29.59 in    
Wind  
Wind Speed 9 mph (WSW)    
Max Wind Speed 22 mph    
Max Gust Speed 29 mph    
Visibility 10 miles    
Events Rain , Thunderstorm    
Averages and records for this station are not official NWS values.
T = Trace of Precipitation, MM = Missing Value Source: NWS Daily Summary

Daily Weather History Graph

Daily Weather History Graph

Search for Another Location

Airport or City:

Trip Planner

Search our weather history database for the weather conditions in past years. The results will help you decide how hot, cold, wet, or windy it might be!

Date:

Astronomy

Jun. 08, 2014 Rise Set
Actual Time 3:12 AM AKDT 12:28 AM AKDT
Civil Twilight Sun does not rise Sun does not rise
Nautical Twilight Sun does not rise Sun does not rise
Astronomical Twilight Sun does not rise Sun does not rise
Moon 5:43 PM AKDT (6/8) 2:38 AM AKDT (6/8)
Length of Visible Light 24h 00m
Length of Day
21h 15m
Waxing Gibbous, 78% of the Moon is Illuminated
Jun 8
Waxing Gibbous
Jun 12
Full
Jun 19
Last Quarter
Jun 27
New
Jul 5
First Quarter

Hourly Weather History & Observations

Time (AKDT) Temp. Dew Point Humidity Pressure Visibility Wind Dir Wind Speed Gust Speed Precip Events Conditions
12:56 AM 63.0 °F 39.0 °F 41% 29.56 in 10.0 mi WNW 6.9 mph - N/A   Clear
1:56 AM 63.0 °F 37.9 °F 40% 29.57 in 10.0 mi WNW 6.9 mph - N/A   Clear
2:56 AM 64.0 °F 37.0 °F 37% 29.57 in 10.0 mi NW 9.2 mph - N/A   Clear
3:56 AM 62.1 °F 37.9 °F 41% 29.58 in 10.0 mi Calm Calm - N/A   Overcast
4:56 AM 62.1 °F 37.0 °F 39% 29.58 in 10.0 mi WSW 4.6 mph - N/A   Mostly Cloudy
5:56 AM 60.1 °F 41.0 °F 49% 29.58 in 10.0 mi West 8.1 mph - 0.00 in Rain Light Rain
6:56 AM 60.1 °F 39.9 °F 47% 29.58 in 10.0 mi West 5.8 mph - 0.00 in   Overcast
7:56 AM 63.0 °F 39.0 °F 41% 29.57 in 10.0 mi West 9.2 mph - N/A   Scattered Clouds
9:56 AM 64.9 °F 39.0 °F 39% 29.57 in 10.0 mi SW 8.1 mph - N/A   Partly Cloudy
10:56 AM 66.9 °F 41.0 °F 39% 29.57 in 10.0 mi SW 6.9 mph - N/A   Clear
11:56 AM 71.1 °F 42.1 °F 35% 29.56 in 10.0 mi SSW 8.1 mph - N/A   Clear
12:56 PM 71.1 °F 42.1 °F 35% 29.57 in 10.0 mi SW 8.1 mph - N/A   Clear
1:56 PM 73.9 °F 41.0 °F 30% 29.55 in 10.0 mi SW 6.9 mph - N/A   Mostly Cloudy
2:24 PM 71.1 °F 41.0 °F 34% 29.55 in 10.0 mi North 15.0 mph - N/A   Mostly Cloudy
2:56 PM 71.1 °F 41.0 °F 34% 29.56 in 10.0 mi NNW 10.4 mph - N/A   Partly Cloudy
3:31 PM 70.0 °F 39.9 °F 33% 29.57 in 10.0 mi NNE 21.9 mph 28.8 mph N/A Thunderstorm Thunderstorm
3:48 PM 68.0 °F 42.1 °F 39% 29.56 in 10.0 mi NNE 12.7 mph 26.5 mph N/A   Mostly Cloudy
3:56 PM 68.0 °F 44.1 °F 42% 29.57 in 10.0 mi NE 15.0 mph 24.2 mph N/A   Scattered Clouds
4:13 PM 64.9 °F 45.0 °F 48% 29.57 in 10.0 mi North 6.9 mph - N/A Thunderstorm Thunderstorm
4:28 PM 69.1 °F 44.1 °F 40% 29.58 in 10.0 mi East 11.5 mph - N/A   Overcast
4:39 PM 68.0 °F 43.0 °F 40% 29.58 in 10.0 mi ESE 12.7 mph 18.4 mph N/A Thunderstorm Thunderstorm
4:54 PM 68.0 °F 42.8 °F 40% 29.58 in 10.0 mi East 13.8 mph - N/A   Mostly Cloudy
4:56 PM 68.0 °F 42.1 °F 39% 29.59 in 10.0 mi East 10.4 mph 19.6 mph N/A   Mostly Cloudy
5:56 PM 61.0 °F 48.0 °F 62% 29.60 in 10.0 mi SSW 6.9 mph - 0.00 in   Overcast
6:56 PM 64.0 °F 48.0 °F 56% 29.61 in 10.0 mi SW 6.9 mph - N/A   Clear
7:56 PM 64.9 °F 45.0 °F 48% 29.63 in 10.0 mi WSW 13.8 mph - N/A   Partly Cloudy
8:56 PM 64.0 °F 46.0 °F 52% 29.65 in 10.0 mi SW 10.4 mph - N/A   Partly Cloudy
9:56 PM 60.1 °F 46.9 °F 62% 29.68 in 10.0 mi WSW 16.1 mph - N/A   Overcast
10:56 PM 57.9 °F 48.0 °F 70% 29.70 in 10.0 mi SW 16.1 mph - N/A   Mostly Cloudy
11:56 PM 55.9 °F 48.9 °F 77% 29.73 in 10.0 mi SW 10.4 mph - N/A   Mostly Cloudy